カタログに戻る

STARLINK-38245

運用中通信SSO
NORAD 100320·PAYLOAD·🇺🇸 United States

打ち上げ Aug 12, 2026 から Vandenberg Space Force Base

Loading…

次のパス (今後24時間)

TLE

最新Source: Space-Track

元期: Sep 14, 2026, 15:15 UTC

1 A0320U 26184V   26257.63585144  .00012792  00000-0  35571-3 0  9999
2 A0320  97.2837 122.8678 0001649  88.1307 272.0127 15.36977828  6467

AllMySatでSTARLINK-38245をリアルタイム追跡

Download on the App Store